Temp
7 7 7 7 8 7 7 7 7 7 7 7 7 7 7 8 8 8 8 7 8 8 8 8 7 8 8 8 7 8 8 8 10 8 9 17 21 20 21 21 21 20 19 18 18 19 18 18 18 18 19 19 19 20 20 20 21 21 21 20 20 21 21 22 23 23 24 24 25 25 24 25 26 25 24 24 24 23 23 22 21 21 20 21 21 20 20 19
7 7 7 7 7 7 7 7 7 7 7 7 7 7 7 7 8 8 7 7 8 8 8 8 7 8 7 8 7 7 8 8 8 8 13 21 21 21 21 21 20 20 19 18 18 19 18 18 18 17 19 19 19 20 20 20 21 21 20 20 21 21 22 22 23 24 24 25 25 24 24 25 26 25 25 25 24 23 24 23 21 21 20 19 19 19 19 19
7 7 7 7 7 7 7 7 7 7 7 7 7 7 7 7 7 7 7 7 7 8 7 7 8 7 7 8 7 7 8 8 10 14 20 23 22 22 22 21 21 20 20 19 19 19 20 19 18 18 19 19 19 19 20 21 21 21 20 21 21 22 22 22 23 23 24 24 24 24 24 25 27 25 25 26 24 24 24 24 23 21 20 19 19 18 18 18
7 7 7 7 7 7 7 7 7 7 7 7 7 7 7 7 7 7 7 7 7 7 7 7 7 7 7 7 7 8 8 10 16 20 21 22 22 23 22 21 20 20 20 20 19 20 20 19 18 19 20 19 20 19 20 21 21 21 20 21 22 21 22 23 23 24 24 23 24 25 25 26 26 25 25 26 25 26 26 25 25 23 20 19 19 18 18 18
7 7 7 7 7 7 7 7 7 7 7 7 7 7 7 7 7 7 7 7 7 7 7 7 7 7 7 7 8 8 9 15 20 21 20 21 21 21 22 20 20 20 20 19 19 19 19 18 18 20 20 20 20 20 21 21 21 21 20 21 22 21 22 24 24 24 24 23 23 24 25 26 26 25 25 26 27 28 27 25 24 22 19 19 19 19 19 19
7 7 7 7 7 7 7 7 7 7 7 7 7 7 7 7 7 7 7 7 7 7 7 7 7 7 7 8 8 8 12 18 21 20 20 21 21 21 21 19 19 20 20 19 18 18 19 18 19 20 19 20 20 20 21 21 21 21 21 22 23 23 23 24 24 25 24 23 24 24 25 25 26 27 24 25 28 27 24 22 22 20 19 19 19 19 19 19
7 6 6 7 7 7 7 7 7 7 7 7 7 7 7 7 7 7 7 7 7 7 7 7 7 7 7 8 9 9 12 17 20 20 21 21 21 21 20 18 19 20 19 18 17 18 19 18 19 19 19 20 20 20 21 21 21 21 22 22 23 23 23 23 24 24 23 23 24 23 24 25 27 27 23 25 28 24 20 20 20 19 19 19 19 19 19 19
6 6 6 6 7 7 7 7 7 7 7 7 7 7 7 7 7 7 7 7 7 7 7 7 7 7 7 8 9 11 12 15 20 21 21 21 21 21 20 18 18 18 18 19 18 18 19 18 19 19 20 20 20 20 21 21 21 21 22 22 23 23 23 23 23 23 23 23 23 23 24 25 25 25 24 26 26 22 19 19 19 19 19 19 19 19 19 19
6 6 6 6 6 6 7 7 7 7 7 7 7 6 6 7 6 6 6 7 7 7 7 7 7 7 7 7 9 12 14 17 19 20 20 20 20 20 20 18 17 18 18 19 18 18 19 19 19 20 20 20 20 21 21 21 21 22 22 23 23 24 24 24 24 24 23 23 24 24 25 26 24 24 26 26 23 20 19 19 19 19 19 19 19 19 19 19
6 6 6 6 6 6 6 6 6 7 6 7 7 6 6 6 6 6 6 6 6 7 7 7 7 7 7 7 9 12 16 19 19 19 20 19 19 20 19 18 18 18 18 18 18 18 19 19 19 20 21 20 20 21 21 21 22 22 23 23 23 23 23 23 24 24 23 23 24 24 25 25 24 25 27 25 20 20 20 19 19 19 19 19 19 19 19 19
6 6 6 6 6 6 6 6 6 6 6 6 6 6 6 6 6 6 6 6 6 7 7 7 7 7 7 7 9 13 17 18 18 18 19 18 19 19 19 18 18 19 18 17 18 19 19 19 19 20 21 20 21 21 21 22 22 23 23 23 23 23 23 23 24 23 22 24 24 24 25 25 24 25 27 25 20 20 20 19 19 20 20 19 20 20 19 18
6 6 6 6 6 6 6 6 6 6 6 6 6 6 6 6 6 6 6 6 6 6 6 7 7 7 7 7 8 14 17 18 17 17 17 18 18 19 19 19 19 19 19 17 17 18 20 20 20 21 21 21 21 21 22 22 23 23 23 23 24 24 24 24 25 23 23 25 24 24 24 24 25 25 26 23 20 20 20 19 20 19 20 20 20 20 19 18
6 6 6 6 6 6 6 6 6 6 6 6 6 6 6 6 6 6 6 6 6 6 6 7 7 7 7 8 11 16 18 17 17 17 16 17 18 18 18 18 19 19 20 19 17 18 20 21 21 21 21 21 21 22 22 22 22 23 23 23 24 23 24 24 23 23 23 24 24 24 23 24 25 25 26 22 20 20 20 19 20 19 20 20 20 20 19 18
6 6 6 6 6 6 6 6 6 6 6 6 6 6 6 6 6 6 6 6 6 6 6 7 7 7 7 9 13 17 18 17 17 17 17 17 17 17 17 18 18 18 19 19 18 19 20 20 20 21 20 21 22 22 22 22 22 23 22 22 22 22 23 24 23 22 25 24 24 26 23 24 25 24 26 23 20 21 21 20 20 19 20 20 19 19 19 18
6 6 6 6 6 6 6 6 6 6 6 6 6 6 6 5 6 6 6 6 6 6 7 7 7 7 7 8 14 17 17 16 16 18 18 17 17 17 18 18 18 18 18 18 19 19 19 20 20 20 20 21 21 21 22 22 21 22 22 21 20 21 23 25 23 22 25 24 24 25 23 24 25 24 24 22 20 22 21 20 19 19 19 19 19 19 18 18
6 6 6 6 6 6 6 6 6 6 6 6 6 6 5 6 6 6 6 6 6 6 6 7 7 7 8 11 15 17 16 15 17 19 19 18 18 18 18 17 17 17 17 18 19 19 19 20 20 20 21 21 20 21 21 21 21 20 21 21 21 21 22 23 24 23 24 25 24 25 24 25 25 23 23 21 20 21 21 20 19 19 19 19 19 19 18 18
5 6 6 6 6 6 6 6 6 6 6 6 6 5 6 7 7 7 7 6 7 7 7 8 7 7 10 14 16 17 17 17 18 19 19 19 19 19 18 17 16 16 16 18 19 19 19 20 20 20 20 20 20 21 21 20 20 20 20 21 20 20 21 22 24 24 24 25 25 25 25 25 25 24 23 21 20 21 21 20 19 19 19 19 19 19 18 18
5 6 5 6 6 6 6 6 5 6 5 5 5 5 7 8 7 7 7 7 7 7 7 7 7 9 13 15 15 17 18 18 19 19 19 19 19 19 19 18 17 16 17 18 19 19 19 19 19 20 20 20 20 21 20 20 20 20 20 21 20 20 21 21 23 24 24 25 25 24 24 24 23 23 22 20 20 20 20 20 19 19 19 19 19 19 18 18
5 5 5 5 5 6 6 5 5 5 5 5 5 6 8 8 7 8 7 7 7 9 10 9 9 13 16 16 16 17 18 19 19 19 18 18 18 19 20 19 18 18 18 18 18 19 19 19 19 19 19 19 20 21 21 21 21 21 21 21 20 20 21 21 23 23 23 23 24 24 24 23 20 20 19 18 19 20 20 20 20 19 19 19 19 18 18 18
5 5 5 5 5 5 5 5 5 5 5 5 4 6 9 9 9 9 7 7 8 10 12 11 10 13 16 16 16 17 18 19 19 19 18 18 19 19 19 19 18 19 19 19 18 18 19 19 18 19 19 20 21 21 22 21 21 21 21 21 20 20 21 22 23 23 22 23 23 22 22 20 18 18 17 17 18 17 18 19 20 19 19 18 18 18 18 18
5 5 5 5 5 5 5 5 5 5 5 5 4 5 8 9 10 10 8 8 9 9 10 11 10 12 15 15 15 16 17 17 18 19 19 19 19 19 19 19 19 18 18 19 19 18 19 18 18 20 20 21 20 20 21 20 20 21 21 21 20 20 21 22 23 22 22 23 22 20 20 18 17 17 17 17 17 16 16 17 18 18 19 18 18 17 17 17
5 5 5 5 5 5 5 5 5 5 5 5 5 4 5 8 9 9 9 9 10 10 10 11 11 11 13 14 14 15 15 15 18 19 19 19 19 19 19 18 18 18 18 19 19 18 18 18 19 20 18 18 18 18 20 20 20 21 20 21 21 20 21 22 22 21 21 23 22 19 19 18 17 18 17 16 16 16 15 15 15 16 18 18 18 18 17 17
5 5 5 5 5 5 5 5 5 5 5 5 4 4 6 9 10 9 8 9 10 11 11 10 11 11 12 13 14 15 15 15 17 19 19 19 19 19 19 18 18 18 18 18 19 18 18 18 20 18 16 18 18 18 20 20 20 20 20 21 21 20 20 22 23 22 21 21 20 19 19 18 17 18 18 17 16 16 15 15 15 15 16 17 18 18 18 18
5 5 5 5 5 5 5 5 5 5 5 5 4 6 9 10 9 8 8 9 11 13 12 12 12 12 13 14 16 15 15 16 16 18 20 20 19 19 19 19 18 18 18 18 19 19 19 19 19 17 17 20 19 18 19 20 20 19 20 21 21 21 21 22 22 22 21 20 20 20 20 19 17 17 18 17 16 16 16 16 16 15 15 16 16 17 17 18
5 5 5 5 5 5 5 5 5 5 5 5 6 8 9 8 8 8 8 10 12 13 14 14 13 14 15 16 16 16 16 16 17 19 20 20 19 19 19 19 19 18 17 18 19 19 20 19 18 18 18 19 19 19 19 20 20 19 20 21 22 22 22 22 21 21 21 21 20 20 21 19 17 17 17 17 16 16 16 16 16 16 16 15 16 16 16 16
5 5 5 5 5 5 5 5 5 4 5 6 8 9 8 8 8 8 9 11 13 14 15 15 15 16 17 16 16 17 16 16 18 19 20 20 21 20 19 19 19 18 17 18 19 19 19 18 18 19 19 18 19 19 18 19 20 20 20 21 22 22 21 22 22 21 21 21 19 19 21 19 17 17 17 17 16 15 16 16 16 17 16 16 16 15 15 15
5 5 5 5 5 5 4 5 5 4 6 8 9 9 8 9 8 8 10 12 13 15 15 15 16 18 18 17 17 17 17 18 19 19 20 21 21 21 20 19 19 19 18 18 19 19 19 18 19 19 18 18 18 19 18 19 20 21 20 20 21 21 22 22 22 22 21 21 20 19 21 20 18 18 18 17 16 16 16 16 17 17 17 16 16 15 15 15
4 5 5 4 5 4 4 5 4 4 7 9 9 9 9 9 8 9 11 12 14 17 16 15 17 18 18 17 17 18 19 19 19 19 20 21 21 21 20 19 19 19 19 19 19 19 19 19 19 19 19 18 18 20 19 19 21 22 20 19 20 21 22 22 22 22 20 20 21 20 20 21 19 17 17 17 16 16 16 16 16 16 16 16 16 16 16 15
4 4 4 4 4 4 4 4 4 5 8 8 8 9 9 8 9 11 11 12 15 18 18 17 18 18 17 16 17 19 20 20 20 19 20 21 21 21 20 19 20 19 19 20 19 19 19 20 20 19 19 19 20 20 19 19 21 21 19 19 20 20 20 20 21 22 20 20 21 20 19 20 19 16 17 17 16 16 16 16 16 16 16 16 16 16 16 15
4 4 4 4 4 4 4 4 5 7 7 7 7 9 9 9 11 11 11 13 16 18 18 17 17 18 17 16 17 18 19 20 20 19 20 20 21 21 20 19 20 20 19 19 19 20 20 19 19 20 20 20 21 19 18 20 21 20 20 21 20 20 20 20 20 21 21 20 20 18 17 20 20 17 16 16 16 16 15 16 16 16 16 16 15 15 15 15
4 4 4 4 4 4 4 4 6 7 6 6 7 9 10 11 12 11 11 15 16 17 17 17 17 18 17 16 17 18 19 19 19 19 19 20 20 20 20 19 19 19 19 19 19 19 19 19 20 21 21 20 21 19 18 20 20 20 22 22 21 20 20 20 20 20 20 20 19 16 16 19 20 17 16 16 16 15 15 16 16 16 15 15 15 15 15 15
4 4 4 4 4 4 4 5 6 6 6 6 7 10 12 12 11 11 13 16 15 16 17 17 18 18 17 18 18 18 19 19 19 19 19 19 19 19 19 19 19 18 17 18 18 18 19 20 20 21 21 21 21 20 18 19 20 21 21 21 20 20 20 20 20 20 20 20 18 15 17 19 18 16 16 16 15 15 15 16 15 15 15 14 14 14 14 14
4 4 4 4 4 4 5 6 6 6 6 6 7 11 13 11 11 12 13 14 15 15 16 17 18 18 17 18 18 18 19 19 19 19 19 19 19 18 18 19 19 19 17 17 18 18 19 20 20 20 21 21 21 20 19 19 19 20 20 20 20 19 19 19 18 18 19 19 17 15 18 18 17 16 16 15 15 15 16 15 15 15 14 14 13 13 13 13
4 4 4 4 4 4 5 6 6 5 5 5 8 12 12 10 12 14 14 14 14 13 14 17 19 18 18 18 18 19 19 19 19 19 19 18 18 18 18 18 19 20 18 17 18 18 19 19 20 21 21 21 22 22 21 20 19 20 20 20 20 20 20 19 19 19 19 18 17 16 18 18 16 16 16 15 15 15 15 15 14 14 14 13 13 13 13 12
4 4 4 4 4 6 7 6 6 5 4 6 11 12 10 11 13 14 14 15 14 13 14 17 18 18 18 18 19 19 19 19 19 19 18 18 18 18 18 18 18 19 19 18 17 18 19 20 21 21 20 21 22 22 21 21 19 19 19 20 20 21 21 19 17 18 18 18 17 16 16 16 16 16 15 15 16 15 15 15 14 14 13 13 13 12 12 12
4 4 5 4 5 7 8 7 5 4 4 8 12 11 10 12 13 12 13 14 13 13 15 16 17 17 17 18 18 19 20 19 18 18 18 18 18 18 18 19 19 19 20 19 18 18 18 20 21 20 20 21 22 22 21 21 21 19 19 20 20 20 21 19 16 15 17 18 16 15 15 16 16 16 16 16 16 15 15 14 14 14 13 13 12 12 11 11
4 5 5 5 6 7 7 7 5 4 6 10 12 11 12 13 13 13 14 15 14 14 15 15 17 18 17 17 18 18 19 19 18 19 18 17 18 18 18 19 19 19 21 21 19 18 19 20 20 20 22 21 20 22 22 21 21 20 20 21 19 19 20 20 19 17 17 18 16 14 16 16 15 16 16 16 16 15 14 14 13 13 13 12 12 11 11 11
5 5 6 6 7 7 7 7 5 5 8 11 11 11 13 13 14 15 15 15 15 15 15 15 17 18 17 17 17 18 19 19 18 18 18 17 18 18 19 20 19 20 21 21 20 18 18 21 20 20 21 21 20 22 22 20 21 21 22 21 20 20 20 20 19 19 18 16 15 15 16 15 16 16 16 16 16 15 14 14 13 12 12 11 11 11 11 10
5 5 7 7 7 7 7 7 7 8 10 11 10 12 13 13 14 16 16 15 15 15 16 17 18 17 17 18 17 18 19 19 18 18 18 18 18 18 19 19 19 20 21 21 21 18 18 20 20 20 20 20 21 21 21 20 20 20 21 20 20 20 20 20 19 19 19 16 14 15 16 16 16 16 16 16 16 15 14 13 12 12 11 11 10 10 10 10
5 6 8 7 7 7 7 7 8 10 11 11 11 12 13 13 15 16 16 16 16 16 17 18 18 18 18 18 18 18 19 18 18 18 18 18 18 18 18 18 19 19 19 20 20 19 19 19 20 20 19 20 20 20 20 21 21 20 21 20 20 19 19 20 19 17 18 16 14 14 15 16 16 15 15 16 15 14 14 13 12 11 10 10 10 9 9 9
5 7 8 7 6 7 7 8 10 10 11 11 11 12 13 14 14 15 16 16 16 17 18 18 18 18 18 18 18 18 18 18 18 17 17 17 17 18 17 17 18 18 18 20 20 20 20 19 19 20 20 19 19 17 17 19 20 21 21 21 20 19 19 20 19 16 16 16 15 15 16 15 14 15 15 15 14 14 13 12 11 10 10 9 9 9 9 9
6 8 8 7 7 7 8 9 10 10 10 11 12 12 13 14 14 15 16 16 17 17 18 18 18 17 18 18 18 18 18 17 17 17 17 17 16 17 16 15 16 18 19 19 19 19 19 19 20 19 18 18 18 16 16 17 18 19 19 17 18 20 21 21 20 17 16 16 15 16 17 15 14 14 13 13 12 12 12 11 10 10 10 9 9 9 9 8
7 8 8 7 7 8 9 10 10 10 11 11 12 13 13 14 14 15 15 16 17 17 18 18 18 17 17 17 18 18 17 16 16 16 16 16 16 16 16 15 16 18 19 19 19 19 18 19 19 18 18 19 19 18 18 17 17 18 17 14 16 18 19 19 20 18 17 16 16 17 17 15 14 12 12 11 11 11 10 10 10 10 9 9 9 8 8 8
6 7 8 7 7 8 10 11 10 10 11 12 12 13 14 14 14 15 15 16 17 17 17 18 17 17 17 17 17 17 17 17 16 16 16 16 17 17 16 15 17 18 19 19 19 20 19 18 18 18 18 18 18 19 19 18 17 16 14 13 13 15 17 18 18 18 18 15 16 19 17 14 13 12 11 11 10 10 9 9 9 9 9 8 8 8 8 8
6 7 8 8 7 8 9 11 10 10 10 10 11 12 13 14 14 15 15 16 16 16 17 17 17 17 16 16 17 16 16 17 17 16 16 16 16 17 16 16 16 17 17 17 18 20 18 15 17 19 18 17 18 18 18 18 16 14 13 12 12 14 17 19 18 20 20 15 15 19 17 13 12 11 11 11 10 9 9 9 9 8 8 8 8 8 8 7
6 8 9 8 8 8 9 10 10 10 10 10 11 12 13 14 15 16 15 16 16 16 16 16 16 17 17 16 16 16 15 16 17 17 17 16 16 16 16 16 16 16 17 16 16 17 15 12 13 17 18 17 17 15 14 14 15 14 13 12 12 11 13 17 19 20 19 15 15 17 15 13 12 11 11 10 10 9 9 8 8 8 8 8 7 7 7 7
7 8 9 8 9 9 9 9 10 10 11 11 11 12 13 13 15 16 16 16 16 16 16 16 15 17 17 16 16 16 15 16 16 16 16 16 16 16 16 16 17 17 17 16 15 16 15 13 12 12 13 13 13 12 12 12 13 12 11 12 12 10 12 18 20 18 17 17 17 15 13 13 13 11 10 10 9 8 8 7 7 7 7 7 7 7 7 6
7 8 9 9 9 9 9 10 10 10 11 11 11 12 12 14 15 16 16 17 16 16 17 17 15 15 16 17 16 16 15 16 16 15 16 16 16 17 17 17 17 16 17 16 15 15 15 13 12 11 11 11 11 11 12 12 11 11 11 11 11 11 13 16 16 13 15 19 19 15 13 13 11 10 10 9 8 8 7 7 7 7 7 7 6 6 6 6
7 8 8 9 10 10 9 10 10 11 11 11 11 11 12 14 15 15 15 16 16 15 15 16 15 14 15 17 17 16 16 16 16 15 16 16 16 17 17 17 17 16 17 17 15 15 14 13 12 12 11 10 11 11 11 11 11 11 11 11 11 11 12 13 12 11 13 16 15 13 12 11 9 9 8 8 7 7 7 7 7 6 6 6 6 6 5 5
7 8 8 9 9 9 9 10 11 11 11 11 11 12 12 14 15 15 14 15 16 16 15 15 14 14 15 16 16 16 15 16 17 16 16 16 16 16 17 17 17 16 16 16 15 15 15 13 12 12 12 11 11 11 11 11 11 11 11 10 11 11 11 11 11 11 12 12 11 11 11 9 8 8 7 7 7 7 6 6 6 6 6 5 5 5 5 5
6 7 8 9 10 10 9 10 11 11 12 11 12 13 14 14 15 15 15 14 14 16 16 15 14 14 15 15 15 15 15 15 17 16 16 16 16 16 16 16 16 17 17 15 15 16 15 13 12 13 13 12 11 11 11 11 12 11 11 10 10 11 11 11 10 11 11 11 11 11 11 9 8 7 7 6 6 6 6 6 5 5 5 5 5 5 5 5
6 7 7 8 10 10 10 10 10 11 12 12 12 14 14 15 15 15 15 15 14 15 14 14 15 15 15 15 15 15 15 15 15 14 13 14 13 13 13 14 14 16 17 15 14 14 14 13 13 14 14 12 11 12 12 13 15 14 11 10 10 10 10 10 10 10 10 11 11 11 10 8 7 7 7 6 6 5 5 5 5 5 5 5 4 4 4 4
Height
797 796 796 795 795 794 793 793 792 791 791 790 789 789 788 788 787 787 786 785 785 784 783 782 781 780 779 778 777 775 774 771 769 770 766 753 751 756 757 758 761 761 762 763 764 765 767 769 770 771 772 773 775 775 776 776 777 780 788 796 797 796 791 783 780 777 774 771 766 763 765 767 764 759 754 754 758 760 761 762 763 763 762 761 761 762 765 769
797 796 795 794 794 793 793 792 791 791 790 789 789 788 788 787 787 786 786 785 784 783 783 782 781 779 778 778 776 775 773 770 769 766 754 747 751 754 754 757 760 760 760 761 762 763 766 769 770 771 773 775 776 775 776 776 776 782 790 795 792 788 781 775 773 772 771 770 766 764 765 763 761 759 755 758 766 764 765 766 766 767 766 764 764 766 769 772
796 795 794 794 793 793 792 791 790 790 789 789 788 787 787 786 786 786 785 784 783 783 782 781 780 779 778 777 776 775 772 770 767 756 745 745 750 749 751 755 757 758 759 759 761 763 765 767 769 771 774 776 777 777 778 777 778 781 787 792 786 779 776 772 772 770 769 768 767 765 764 763 758 756 755 760 766 766 767 767 766 770 770 769 769 770 772 775
795 794 794 793 793 792 791 790 790 789 788 788 787 787 786 785 785 785 784 784 783 782 781 780 780 778 778 777 776 774 773 770 758 745 741 744 746 746 748 751 755 757 758 759 761 763 764 766 768 770 773 777 777 777 779 777 778 780 783 786 780 777 776 770 769 768 766 768 768 765 764 763 758 756 757 759 766 767 764 761 761 766 769 770 771 773 774 775
794 793 793 792 792 791 790 789 789 788 787 787 786 786 785 785 784 784 783 783 782 781 780 780 779 778 777 776 775 773 774 767 749 740 742 743 743 744 745 747 752 754 757 759 760 762 763 766 768 770 774 777 778 778 778 774 775 779 780 779 775 776 775 767 766 766 765 768 768 767 765 761 758 758 758 759 764 764 759 757 758 761 765 768 770 772 773 774
793 793 792 791 791 790 789 789 788 787 786 786 785 785 784 784 783 783 783 781 781 780 779 779 778 778 776 775 775 773 773 760 742 740 742 741 742 743 743 746 750 753 755 758 759 762 763 766 769 771 774 776 778 778 776 773 774 779 778 775 772 773 771 765 764 763 764 767 767 768 765 761 760 760 761 760 759 759 756 756 757 760 764 766 768 770 771 772
792 792 791 790 790 789 788 788 787 786 785 785 784 784 783 783 782 782 781 781 780 779 779 778 778 777 775 775 774 773 773 756 739 741 741 740 742 741 743 745 749 752 754 756 758 761 762 766 768 770 774 776 777 776 773 773 773 778 778 774 771 771 768 765 763 762 763 765 764 764 764 763 762 761 763 761 756 757 758 756 757 761 764 766 768 770 770 770
792 791 790 790 789 788 787 787 786 785 784 784 783 783 782 782 781 781 780 780 779 778 778 777 777 777 775 775 773 773 771 752 737 741 742 741 741 741 742 745 749 751 751 753 755 758 761 765 767 768 773 774 774 774 773 774 775 777 777 773 770 769 766 764 764 763 763 763 762 763 763 761 762 762 763 761 757 758 759 758 759 762 764 767 769 769 769 769
791 790 789 789 788 787 786 785 785 784 783 782 782 781 781 780 780 779 779 778 777 777 777 777 777 776 776 775 775 772 759 743 739 742 742 741 741 742 742 744 748 750 751 753 754 757 759 762 764 764 769 771 772 772 771 776 778 773 772 771 769 767 764 764 764 761 763 763 761 764 763 759 761 762 761 759 760 760 760 761 762 763 766 769 769 769 768 768
790 789 788 787 786 786 784 784 783 782 782 781 780 780 779 779 779 778 777 776 776 776 776 777 776 775 776 774 775 768 748 740 742 741 739 740 741 741 742 744 747 748 751 753 754 756 756 758 760 760 764 769 770 770 771 774 773 767 768 769 768 767 764 765 764 761 764 762 761 764 763 761 761 763 762 760 761 761 762 765 764 765 768 768 769 768 767 769
789 788 787 786 785 784 783 783 782 781 780 779 779 778 778 778 777 776 776 775 775 775 775 775 775 776 775 775 775 762 744 741 742 739 740 740 740 741 742 744 746 748 750 753 754 753 754 756 757 760 764 767 769 770 769 768 767 765 767 768 767 767 765 765 763 762 764 761 759 761 763 763 763 764 763 760 762 762 762 766 767 767 768 768 768 768 768 771
788 787 786 785 784 783 782 781 780 780 779 778 778 777 776 776 775 775 774 774 774 774 774 774 775 774 774 776 769 751 741 742 740 740 741 740 741 742 742 744 746 747 748 751 753 753 756 756 756 761 764 765 768 771 767 763 764 765 766 769 768 765 764 762 760 761 763 760 756 760 767 768 765 764 762 761 763 762 764 767 768 768 768 768 768 768 770 773
787 786 785 784 783 782 781 780 779 778 777 776 776 775 775 773 773 773 772 773 772 772 773 773 774 773 775 771 754 741 741 743 741 740 741 742 743 743 744 745 746 748 748 750 752 754 756 756 756 759 761 764 767 766 763 762 765 766 767 769 770 771 768 761 761 761 761 761 754 760 774 771 766 764 759 761 764 763 766 768 768 769 768 769 768 769 772 774
786 785 784 783 781 781 780 779 778 777 776 775 774 773 772 771 771 770 771 771 770 772 772 772 773 773 775 762 741 738 742 741 741 738 738 742 743 744 745 746 747 748 749 750 752 754 755 757 758 759 761 762 762 762 764 766 767 768 770 773 778 781 772 760 761 762 760 760 754 759 774 770 766 764 757 759 762 762 766 768 768 769 768 769 768 770 773 775
785 784 782 781 781 780 778 777 776 775 774 773 772 771 770 769 768 768 769 768 769 770 769 771 772 772 775 759 739 738 739 739 737 733 736 740 741 743 743 744 747 748 750 751 753 753 754 757 759 762 762 760 761 765 769 770 770 772 775 780 785 783 774 763 761 762 760 760 756 761 774 771 764 763 758 759 762 761 765 767 768 768 768 769 770 772 774 776
784 782 781 780 779 778 777 776 775 774 773 771 770 769 767 766 765 765 765 766 767 768 769 771 770 772 772 753 737 736 735 735 732 730 734 737 738 740 741 744 746 748 750 751 753 753 754 757 760 762 762 762 766 768 772 775 776 778 778 781 784 781 777 769 761 761 760 760 759 762 771 770 764 761 759 759 761 762 765 767 769 769 770 770 771 773 774 777
782 781 780 779 778 777 776 775 774 773 771 770 768 766 764 762 761 761 762 764 766 766 769 768 769 773 762 741 735 735 731 730 729 729 731 733 737 738 739 744 746 748 750 751 753 753 754 757 760 763 763 766 767 767 776 784 783 782 781 780 783 784 782 775 765 761 759 760 762 762 766 767 764 762 762 762 763 765 767 769 772 772 772 772 771 773 776 778
781 780 779 778 777 776 775 774 773 771 770 769 767 764 761 760 758 758 760 762 765 768 769 768 770 769 749 734 735 732 727 729 728 728 729 731 736 737 738 741 744 747 750 752 753 754 755 758 762 765 766 768 767 768 779 785 780 780 780 779 784 785 783 779 769 761 760 761 764 765 767 768 768 767 768 769 768 769 772 772 774 775 774 773 773 774 777 778
779 779 778 777 776 775 774 773 772 770 769 767 765 762 760 760 759 759 760 762 763 762 760 760 762 752 736 731 732 729 728 728 727 727 728 730 734 737 738 739 743 746 749 753 755 754 756 761 765 769 771 770 768 767 771 774 772 773 776 777 782 784 781 778 770 761 763 766 768 767 767 774 780 779 777 775 771 772 774 774 775 777 777 777 777 777 778 778
778 777 777 776 775 774 773 772 770 769 768 766 765 761 759 760 759 759 762 762 757 751 746 748 749 740 732 731 730 729 728 725 725 725 725 727 731 735 738 739 743 745 748 752 755 755 755 764 770 769 770 767 765 764 764 768 770 772 775 778 783 784 778 774 767 761 762 767 771 771 775 786 790 787 785 779 775 777 779 776 776 777 778 779 780 779 778 777
777 777 776 774 774 773 771 770 769 768 767 766 766 764 762 761 759 760 762 757 750 746 744 743 744 739 732 731 730 732 732 729 726 724 725 726 728 735 739 741 745 749 750 749 752 754 756 767 770 764 764 762 763 766 765 769 771 771 775 777 782 784 777 769 765 764 763 765 773 777 783 793 792 789 788 781 779 785 785 782 780 779 778 779 780 781 779 777
777 776 774 773 772 771 770 769 768 767 767 766 766 766 764 762 761 761 761 757 747 743 742 741 743 739 732 731 732 734 738 736 728 723 724 726 727 734 739 742 747 750 750 749 752 758 763 769 765 761 765 766 769 770 766 768 771 772 776 777 779 782 777 769 764 766 765 764 774 781 786 794 793 789 788 785 786 789 788 787 786 784 781 780 779 780 780 779
775 774 773 772 771 770 768 767 766 765 764 764 764 764 762 760 760 760 761 759 746 736 736 738 738 737 733 731 731 734 738 738 733 725 721 725 728 732 737 743 747 749 750 750 753 762 769 766 759 762 767 766 770 772 767 769 772 774 776 777 779 780 779 771 764 766 768 769 777 780 785 794 794 789 787 788 790 789 787 788 787 786 785 782 780 778 779 779
774 772 772 770 770 768 766 765 764 763 762 762 762 760 758 758 759 760 759 756 744 731 727 727 729 730 728 725 726 731 735 733 731 725 719 722 728 731 735 740 745 750 751 750 751 759 762 758 756 763 765 762 768 773 770 769 774 777 775 774 775 774 775 773 767 766 768 774 777 774 782 797 799 796 793 791 791 789 787 787 786 788 788 785 783 781 780 780
772 772 770 769 768 766 764 763 761 761 761 760 759 756 757 758 757 759 759 753 742 730 723 721 724 722 717 721 724 725 730 729 724 721 718 719 724 729 734 735 741 751 753 751 753 755 756 756 757 762 763 763 768 772 770 767 772 777 774 771 769 768 771 772 772 773 771 775 777 772 785 808 808 801 799 796 795 795 791 789 790 790 790 789 788 786 785 784
771 770 769 768 767 764 763 761 760 761 759 757 756 755 757 757 756 758 757 753 741 726 720 720 720 713 710 718 720 721 731 728 716 716 717 717 719 723 732 735 737 747 751 750 752 753 753 754 755 758 762 765 767 770 770 768 772 776 769 765 765 768 771 770 771 774 772 775 780 776 783 807 814 804 801 800 800 800 795 793 794 792 792 792 791 789 787 786
770 769 768 767 765 764 763 761 760 761 757 754 753 754 756 754 756 756 753 753 739 718 716 720 715 708 706 711 714 721 730 721 713 716 715 716 718 718 730 737 736 742 745 747 754 753 752 755 756 757 762 767 769 770 769 767 771 772 764 763 767 769 770 769 768 770 771 772 776 777 776 792 811 809 802 802 801 800 799 798 797 794 794 793 792 791 789 787
768 768 767 766 765 764 763 761 761 758 754 752 752 753 753 752 754 753 754 755 733 707 709 715 710 705 705 709 711 715 716 710 714 720 712 714 718 718 730 735 735 739 738 743 756 753 748 753 755 755 761 767 766 762 763 765 766 763 762 766 767 766 767 767 768 768 776 776 771 777 779 783 807 813 803 803 803 802 805 803 801 799 796 795 793 792 790 789
767 766 765 765 763 763 762 761 759 755 751 750 751 751 750 751 752 751 758 752 722 702 704 706 706 706 708 712 713 710 708 707 712 716 711 714 717 717 728 731 731 737 736 739 749 748 745 746 746 750 757 760 757 755 759 761 760 759 763 768 767 770 774 774 773 768 775 782 775 782 787 784 804 818 809 806 808 808 810 807 804 802 799 797 796 794 793 792
766 765 764 763 762 761 760 759 754 751 750 750 750 748 747 750 750 756 764 745 715 705 704 704 707 707 710 716 717 713 711 709 709 712 714 716 716 717 724 727 728 735 739 740 744 744 743 742 743 746 748 748 748 753 757 755 755 757 761 765 767 772 775 777 778 772 777 787 785 794 798 785 797 815 813 810 811 811 811 809 807 803 802 801 799 798 797 796
764 763 762 761 760 760 759 755 750 749 751 750 748 746 745 747 751 761 756 727 712 711 706 708 709 706 710 715 716 716 713 712 710 712 718 719 720 722 725 730 733 738 745 746 747 747 745 745 744 740 739 742 746 754 758 754 755 757 757 763 771 778 778 779 781 779 786 794 794 804 804 788 796 813 814 810 810 811 811 811 809 806 805 804 802 801 800 799
762 761 760 759 758 758 756 752 749 750 750 749 749 745 745 752 757 757 740 718 719 718 707 708 708 706 711 710 711 714 713 714 713 713 719 722 725 727 728 733 736 745 756 754 752 753 749 745 743 738 737 739 744 755 762 760 758 758 760 766 777 787 790 790 792 792 793 795 800 807 801 796 807 814 812 811 810 810 809 809 809 809 808 807 805 805 804 803
760 758 757 756 756 754 752 750 750 751 750 750 750 744 746 759 757 744 734 726 725 720 710 707 704 705 710 710 712 712 710 715 714 714 718 721 727 730 730 732 730 738 752 754 754 756 753 748 742 741 740 735 740 753 761 763 762 760 763 767 777 790 797 802 810 809 801 797 804 807 798 803 815 813 810 812 811 809 808 808 809 810 811 810 809 808 807 807
757 755 753 751 750 748 747 749 749 750 752 751 748 744 752 762 746 729 730 729 725 725 720 709 703 706 708 709 710 708 711 716 714 715 719 723 730 733 733 734 730 731 742 752 756 754 757 756 743 739 739 733 735 741 743 752 759 759 759 762 769 777 784 795 802 799 797 801 807 806 802 809 817 814 810 810 808 808 807 808 810 811 812 811 810 810 809 810
754 752 749 746 745 743 743 745 747 749 753 750 745 748 756 754 738 730 731 726 726 730 720 707 705 709 710 709 708 704 708 715 715 717 721 725 731 733 733 733 732 732 738 750 756 753 756 752 735 731 735 731 731 733 733 744 758 763 760 763 767 762 766 788 800 796 797 805 810 812 813 813 813 811 809 808 808 809 809 810 812 813 814 813 812 814 813 813
751 748 746 743 741 740 740 742 744 748 751 747 745 751 753 742 736 739 735 727 729 728 719 713 709 711 714 712 710 707 705 711 717 719 724 727 728 730 730 727 728 730 732 742 751 753 756 747 732 731 732 728 728 730 732 738 750 762 763 762 764 758 758 780 803 808 803 804 815 823 819 814 814 811 808 807 809 811 812 813 815 815 815 816 817 818 818 817
749 746 744 741 738 738 738 739 742 747 749 745 744 748 744 736 734 736 730 726 728 724 723 723 711 709 716 715 713 711 706 711 717 719 726 729 726 728 728 724 725 726 724 730 740 746 748 742 734 732 730 729 729 728 731 733 739 753 759 756 759 762 762 769 788 804 806 809 822 826 818 816 820 816 810 808 810 812 814 815 817 818 818 820 821 821 821 820
748 745 742 738 736 736 737 738 741 746 746 744 746 744 737 734 731 727 723 723 724 722 722 720 708 706 711 713 714 711 707 713 718 719 725 729 726 725 724 723 724 724 720 722 732 740 742 741 737 734 733 732 728 729 737 739 735 738 743 747 753 762 768 772 783 795 804 818 828 822 819 820 819 814 810 809 810 811 815 817 818 821 822 824 825 824 823 822
747 745 740 736 736 735 737 739 742 744 744 745 748 742 735 732 728 723 721 720 721 720 717 710 704 705 706 707 712 710 707 713 718 721 724 727 727 724 722 722 722 723 720 719 729 737 740 744 742 736 734 733 730 734 744 747 742 739 742 748 752 757 763 770 779 784 793 818 831 823 821 820 811 809 808 806 809 811 814 817 820 823 826 827 828 828 827 826
746 744 739 735 736 736 738 741 742 743 743 744 745 740 733 730 726 721 717 717 716 713 708 703 700 702 703 703 706 708 709 714 717 721 724 725 727 726 724 722 722 724 723 721 727 733 737 744 745 738 735 737 739 743 745 745 744 746 749 753 756 761 764 767 779 786 789 809 828 828 824 817 807 807 807 804 807 811 813 818 822 826 828 829 830 830 830 829
746 742 738 736 737 738 739 742 743 742 742 742 740 737 732 728 726 721 714 713 713 706 701 700 698 699 700 702 705 705 709 716 718 721 725 725 727 728 726 724 724 725 725 726 728 730 735 741 744 742 742 745 748 750 748 743 741 743 746 750 756 760 763 769 783 794 792 799 814 816 816 816 811 807 806 806 808 811 815 819 824 827 829 830 831 830 831 830
744 740 737 737 738 738 740 741 742 741 742 740 737 734 731 728 726 722 714 710 708 702 697 697 697 698 698 700 702 704 709 718 721 722 725 727 729 730 727 726 725 722 723 729 730 729 733 737 743 749 751 751 751 749 749 748 745 745 749 758 759 754 755 762 773 788 794 800 806 805 806 813 813 809 809 812 813 814 818 820 823 827 830 831 831 831 831 831
743 740 738 738 738 739 739 740 742 742 740 737 733 731 729 728 725 721 715 709 705 701 697 696 697 698 699 699 700 703 710 720 725 724 725 728 728 727 726 725 724 721 721 728 730 728 732 739 746 753 753 747 745 745 746 747 747 749 759 770 768 760 758 760 763 773 787 799 800 796 804 812 812 813 815 817 818 820 822 823 823 828 831 832 833 832 832 832
744 741 739 739 740 740 739 738 740 741 738 735 734 730 726 726 724 720 714 709 705 702 699 698 697 698 700 700 701 705 709 717 726 726 724 727 726 723 724 723 722 721 721 724 724 724 733 744 748 754 761 759 755 752 748 747 753 763 773 779 776 771 766 764 768 770 780 798 796 785 799 813 813 816 819 819 822 824 827 827 825 830 833 833 834 834 834 834
745 741 739 740 742 742 740 737 738 741 741 740 738 731 727 724 719 715 713 709 706 704 702 700 699 699 701 700 703 708 709 710 719 724 724 726 725 723 723 722 721 722 721 722 720 721 739 757 753 749 760 768 766 763 759 758 763 773 781 782 780 777 766 761 768 767 771 796 796 781 796 813 814 817 820 821 825 827 829 830 828 833 836 835 835 836 836 836
745 741 742 743 743 743 741 738 738 740 741 741 736 729 727 723 714 709 711 709 706 705 703 702 701 699 701 703 706 713 714 711 713 719 723 726 726 725 724 722 722 722 721 723 724 728 748 770 768 756 756 762 766 770 771 770 770 775 784 786 785 788 779 766 765 764 770 791 796 788 798 809 813 818 821 823 827 830 832 832 832 836 838 837 838 838 838 838
743 739 740 742 743 743 742 739 738 737 737 737 733 728 726 723 715 709 708 707 706 705 705 705 705 703 703 707 710 716 720 716 715 720 725 727 726 726 725 723 722 723 722 725 728 733 748 768 776 775 776 777 779 781 778 777 780 784 789 788 787 791 783 764 761 769 775 781 787 792 799 804 810 819 823 826 831 833 835 835 837 841 841 840 840 839 840 840
741 738 736 736 737 740 740 738 737 736 736 736 734 730 726 722 718 713 709 706 706 707 705 706 711 711 709 708 711 717 722 721 722 726 726 726 726 724 724 724 724 725 725 728 731 736 749 768 776 779 785 787 785 783 780 781 787 790 790 790 790 791 783 772 778 789 782 769 773 789 800 806 815 823 826 830 833 835 837 838 840 843 843 842 842 842 842 842
740 739 737 735 734 735 736 735 734 734 734 735 734 731 727 722 718 716 714 710 709 711 710 712 717 718 714 709 710 717 722 722 725 729 727 727 728 727 727 728 728 728 727 730 736 738 751 772 778 776 785 791 788 786 784 784 788 792 793 794 793 794 791 788 792 797 788 779 782 793 805 817 825 828 830 833 834 836 838 840 842 844 845 845 844 845 845 844
741 739 739 737 735 735 736 734 733 733 733 735 733 729 726 722 717 716 717 716 714 713 714 718 722 720 716 713 713 718 723 720 720 724 726 727 729 729 730 731 731 731 730 734 739 739 748 769 776 773 782 792 793 791 788 787 790 794 797 798 797 796 797 796 797 797 794 796 801 804 812 824 831 832 833 835 835 837 840 842 844 846 846 846 847 847 847 845
742 739 739 738 734 734 735 734 733 732 732 733 731 725 722 720 717 716 717 718 717 714 715 719 721 720 719 718 719 722 725 721 719 721 724 725 727 728 730 732 732 731 733 739 743 740 746 766 775 771 778 792 794 792 792 790 788 792 799 803 803 802 802 802 805 803 800 801 806 807 813 824 832 834 836 837 839 841 843 844 846 846 847 848 849 849 849 848
742 739 738 737 734 733 734 733 733 732 728 728 727 722 719 718 716 716 717 719 719 718 719 720 718 719 722 723 723 723 724 724 724 726 728 728 730 733 734 736 736 734 735 741 747 749 751 762 770 768 775 791 793 789 790 786 778 785 802 809 808 807 807 807 809 810 806 804 805 807 814 825 833 834 836 840 842 844 846 846 847 848 848 850 851 851 850 850
Wind_Speed
13 13 12 12 13 14 13 14 14 14 14 14 14 14 14 14 14 14 14 14 15 15 15 16 16 16 16 16 16 16 18 18 19 14 10 23 25 18 17 14 8 9 15 10 12 12 8 6 6 8 8 4 1 2 2 1 2 2 3 2 1 3 4 5 6 5 2 4 6 7 6 2 3 1 0 2 7 4 4 4 3 4 5 3 7 18 28 26
14 14 13 13 14 14 14 14 14 14 14 14 14 14 14 14 14 14 14 15 15 15 15 15 16 16 16 16 16 16 18 19 17 14 23 30 25 21 21 18 10 12 19 14 15 14 9 5 5 7 5 2 0 1 2 1 2 2 3 2 4 5 4 5 6 5 2 4 7 9 5 2 3 3 1 2 3 3 3 2 4 6 6 8 12 21 25 24
13 14 14 14 14 14 15 15 14 14 14 14 14 14 14 14 14 14 14 15 14 15 15 15 16 16 16 16 16 17 17 15 9 14 28 26 21 23 23 22 15 16 21 16 15 13 9 10 12 8 4 2 0 1 2 2 2 3 3 2 6 5 5 5 5 6 6 5 8 9 3 2 6 3 1 3 4 2 2 3 3 4 4 8 9 15 20 21
13 13 13 14 15 14 14 15 15 14 14 14 14 14 14 14 14 14 14 14 14 14 15 15 16 16 16 15 16 17 14 8 5 10 16 12 12 17 19 24 20 19 20 14 13 10 9 13 12 6 4 1 2 2 3 3 2 2 3 4 6 3 4 5 6 8 8 5 5 7 4 3 6 2 2 6 5 3 4 5 5 7 9 11 9 11 16 17
13 14 13 13 14 14 14 14 14 14 14 14 15 15 14 14 14 14 14 14 14 14 15 15 16 16 16 16 16 15 7 3 4 4 3 0 4 9 13 22 23 22 20 14 12 11 11 11 8 4 4 2 1 2 3 5 3 2 2 5 6 3 4 6 5 7 4 4 3 4 5 3 2 1 2 7 5 4 4 2 5 10 12 13 11 12 14 13
13 14 14 15 15 14 13 14 14 14 15 14 14 15 14 14 14 14 14 14 14 14 14 14 15 16 16 17 12 8 2 2 6 1 4 1 9 12 7 20 25 23 21 17 14 13 9 8 6 4 3 2 3 3 4 3 3 2 3 2 6 5 6 5 3 6 2 2 4 2 4 4 1 1 0 4 5 5 3 1 8 10 12 15 13 13 13 13
14 14 14 15 16 16 15 14 15 14 15 14 14 15 14 14 14 14 14 14 14 13 14 14 15 15 16 15 7 3 1 7 16 9 6 12 16 16 5 20 25 24 22 19 15 11 7 8 7 5 5 3 4 5 4 1 1 4 4 4 5 6 8 7 5 8 6 6 8 2 5 7 2 1 1 2 5 3 4 4 10 11 13 16 13 13 13 13
15 15 14 15 16 16 15 15 15 15 15 14 15 15 14 15 14 14 14 14 14 13 13 13 14 14 14 12 3 2 0 15 29 21 17 21 18 12 8 22 24 25 25 23 17 11 8 9 8 5 5 4 4 5 4 1 1 4 6 4 3 5 7 7 7 9 8 7 7 4 8 9 4 1 2 3 6 4 7 8 11 13 13 13 12 12 12 11
16 16 16 16 16 15 15 15 15 15 15 14 15 15 15 15 14 15 14 14 13 12 13 12 13 12 12 8 0 2 7 19 25 20 19 19 13 5 15 22 25 25 21 20 18 14 9 8 8 6 6 6 5 4 4 4 3 5 7 5 4 6 7 6 7 9 6 5 2 3 9 9 4 2 2 3 3 2 8 10 10 13 13 11 11 12 11 11
17 17 17 16 16 15 15 15 15 15 15 15 15 15 15 15 15 15 14 14 13 12 12 11 11 10 9 5 2 3 9 12 12 10 11 10 7 11 19 23 27 25 17 14 16 15 9 7 7 5 5 4 4 3 4 6 4 5 6 5 7 8 8 3 6 8 3 4 4 4 9 6 5 2 3 4 3 6 10 9 8 11 12 12 10 10 10 8
17 17 16 15 15 15 15 15 15 15 15 15 15 16 16 16 16 15 14 14 12 12 11 10 10 8 6 2 3 6 6 5 2 2 1 5 11 19 22 24 27 23 17 11 14 16 9 9 9 5 2 2 4 3 2 6 3 3 5 3 7 6 7 4 6 7 1 4 6 8 6 3 5 0 4 6 1 6 10 9 7 10 11 11 11 9 7 5
18 19 17 15 15 15 16 16 15 15 16 16 16 16 16 16 16 15 15 14 13 11 10 10 8 5 5 2 7 16 9 0 5 8 6 1 11 20 21 23 25 23 19 12 13 15 10 13 12 5 3 3 3 2 3 5 3 2 4 2 7 6 6 6 5 5 5 3 5 9 1 4 2 3 6 6 1 6 10 9 7 8 9 9 9 8 5 5
18 20 19 16 15 14 15 16 16 16 16 16 17 17 17 17 17 16 15 14 12 11 9 9 6 5 3 2 12 21 17 10 6 8 9 4 8 16 16 18 22 21 19 13 10 13 12 12 11 5 3 4 1 2 2 1 2 1 2 2 4 6 6 6 2 1 5 3 5 8 1 6 5 7 9 6 4 8 8 8 7 7 7 8 8 7 4 6
18 19 19 18 17 16 15 15 16 16 16 17 17 18 18 18 18 17 15 14 12 10 9 6 4 4 3 7 15 15 16 18 18 23 19 11 12 13 11 13 16 18 17 12 6 10 17 10 4 3 1 3 2 2 2 4 2 1 1 1 2 1 4 7 2 3 5 2 4 7 2 5 5 8 9 5 6 9 8 7 7 6 7 7 7 6 5 5
18 18 17 16 16 17 16 15 16 16 17 17 18 19 20 20 19 18 16 14 12 8 5 3 4 4 1 11 16 9 9 13 20 28 21 13 16 12 12 14 14 16 16 12 5 6 17 10 2 2 3 1 2 1 2 3 3 2 2 2 3 2 5 8 3 3 4 1 2 6 2 5 5 8 8 4 5 7 8 8 8 7 7 7 6 5 5 4
17 18 16 14 14 15 15 15 16 17 18 18 19 20 21 21 20 19 16 14 9 4 3 2 6 6 2 7 8 4 6 10 15 22 19 17 18 12 13 14 11 13 12 11 8 4 11 9 2 2 1 0 4 3 2 1 3 3 2 2 1 2 3 4 2 1 2 1 3 3 3 2 3 6 7 2 6 6 7 7 7 7 6 6 5 4 5 4
16 17 16 15 15 16 16 15 16 16 17 18 20 23 23 21 18 16 12 7 4 6 6 3 6 6 5 8 6 6 7 11 11 10 14 20 20 15 13 9 5 9 9 6 7 4 5 6 1 1 1 2 3 4 3 2 2 3 2 2 2 2 1 2 2 3 3 4 1 1 2 4 4 6 7 4 1 3 4 4 4 4 3 4 4 4 5 5
15 16 15 16 17 17 16 15 16 16 17 18 21 24 20 12 7 4 5 9 8 5 4 2 4 4 6 9 7 5 3 5 9 8 13 18 19 17 13 7 6 10 7 3 3 3 2 1 2 2 1 2 3 5 4 5 5 3 2 3 1 1 1 3 3 2 4 4 0 0 3 4 5 8 9 9 6 4 3 2 3 2 2 3 3 5 5 5
15 15 15 16 15 15 15 15 16 16 17 18 21 20 8 4 6 7 10 11 7 4 3 4 6 3 3 6 5 5 10 9 7 8 13 17 17 14 9 8 7 9 6 3 3 4 3 2 3 3 3 4 5 5 6 6 7 7 4 5 4 1 3 5 5 5 1 3 2 5 4 2 7 9 10 10 6 7 6 5 4 3 1 1 0 3 4 6
15 15 15 15 15 16 16 15 16 16 16 17 20 15 2 2 2 3 4 5 6 5 3 5 10 5 5 2 3 8 11 7 2 7 15 19 18 12 5 4 5 5 4 6 5 3 4 4 3 4 6 6 7 7 7 6 6 7 5 5 4 1 3 5 6 5 3 4 4 4 4 8 7 7 9 8 8 11 9 6 4 2 2 2 1 3 5 5
16 16 17 16 16 16 15 16 16 15 15 16 15 8 1 2 1 1 1 5 11 12 11 7 12 11 10 7 6 11 7 5 6 3 14 19 18 12 2 2 4 3 3 5 5 3 4 5 5 7 8 7 7 6 7 7 6 6 5 5 3 2 4 6 5 5 1 3 3 4 11 8 5 6 8 9 11 12 9 7 5 3 3 3 3 3 3 2
16 16 17 17 16 16 16 16 15 15 16 15 9 1 3 2 3 3 3 4 9 14 17 13 11 13 16 17 13 6 3 4 8 5 12 15 11 9 3 3 5 4 4 4 5 4 3 4 8 7 6 5 5 4 7 7 6 5 4 4 1 2 3 6 5 5 3 3 1 7 12 6 5 4 8 11 9 6 7 7 7 6 3 2 4 3 1 1
16 15 15 16 15 16 16 16 17 17 15 11 5 6 4 1 3 9 5 2 7 9 12 13 12 12 12 16 15 5 2 4 5 6 11 14 6 7 6 5 5 4 5 5 6 6 3 4 8 6 7 8 6 4 7 6 4 4 4 4 1 3 1 3 4 4 4 3 3 8 10 6 6 5 7 9 6 6 8 7 8 8 6 3 2 4 4 5
16 16 16 16 16 16 16 18 19 12 7 7 9 9 4 4 9 12 3 2 6 5 7 12 11 8 12 12 8 9 5 5 4 5 11 13 6 5 7 5 5 4 4 7 9 7 5 5 5 8 6 7 6 4 6 6 2 1 3 5 3 3 3 4 4 5 4 3 3 7 7 5 6 7 7 6 6 10 11 10 12 11 9 6 4 3 2 2
15 15 15 15 15 16 19 18 10 4 7 9 10 6 4 8 12 7 1 1 4 4 4 8 7 7 13 10 9 10 4 4 6 6 9 13 9 6 5 3 4 4 5 7 9 6 5 4 6 9 5 5 7 4 5 6 4 1 3 6 7 6 5 5 3 5 5 3 1 4 6 3 6 7 7 6 7 10 10 12 14 12 11 9 7 6 5 5
15 15 15 14 14 17 17 9 4 9 13 8 5 1 4 13 13 2 2 2 3 3 2 5 4 8 11 8 8 7 3 4 8 9 10 12 12 7 4 2 2 4 6 6 5 2 2 4 6 8 6 6 6 3 4 5 6 1 5 8 8 6 4 5 2 2 2 2 1 3 6 2 4 6 7 5 6 9 10 14 14 11 11 9 8 7 7 7
15 15 15 15 14 15 11 5 9 14 8 3 2 3 10 18 9 6 2 3 3 2 4 2 2 9 10 9 11 8 2 3 4 7 9 12 10 4 5 5 2 3 4 4 2 2 3 6 5 6 6 5 4 3 5 6 8 3 6 8 8 6 6 5 3 3 1 3 1 4 5 5 0 3 6 5 5 10 12 14 13 11 11 10 9 9 9 9
15 15 14 14 13 13 11 12 14 11 6 4 6 10 18 18 1 6 1 1 2 1 4 2 3 8 6 8 13 7 4 6 7 4 8 14 9 3 5 6 5 6 4 6 4 3 4 7 7 7 5 3 4 5 8 9 6 5 5 7 8 6 6 5 5 3 1 0 2 6 5 5 1 3 5 5 6 10 12 12 12 11 11 10 10 11 10 10
16 15 14 13 14 14 13 13 13 10 9 11 13 17 21 10 4 3 2 1 3 1 2 2 4 5 4 6 10 6 2 3 5 3 6 11 6 3 4 5 7 8 3 5 6 3 2 6 8 8 5 5 6 6 10 11 5 5 5 7 4 5 4 4 5 3 3 3 3 6 4 4 1 3 3 3 5 7 8 8 8 10 10 9 10 10 10 9
16 15 14 13 14 14 12 12 17 15 12 14 18 21 14 0 4 1 1 3 3 2 1 2 3 4 7 8 6 7 3 1 3 4 4 4 2 3 3 3 6 6 3 4 4 3 1 1 4 5 5 6 6 5 9 12 7 6 7 6 6 5 5 3 3 3 4 2 5 5 3 4 2 2 3 3 3 3 4 5 6 8 9 9 9 9 9 9
16 15 15 15 15 14 11 10 11 7 5 12 19 17 5 3 1 1 3 3 2 2 1 1 2 4 11 10 6 6 3 2 3 7 5 3 4 3 3 3 4 4 3 3 2 2 5 2 2 3 4 5 5 4 3 4 5 6 5 5 5 3 4 4 4 4 4 2 5 4 4 5 3 1 2 4 4 4 4 4 6 7 9 8 8 9 9 9
17 17 17 17 16 16 13 10 5 2 6 17 19 9 2 2 1 2 3 3 2 3 2 2 2 4 9 8 7 7 4 1 2 6 7 5 4 4 4 4 3 4 2 2 1 3 3 2 3 4 2 5 7 4 3 2 2 5 5 6 6 1 2 2 2 1 2 3 3 4 3 4 2 0 2 3 4 5 4 5 6 7 9 9 9 9 9 9
20 21 21 21 20 22 24 21 16 15 18 20 12 2 4 1 2 4 4 4 1 3 4 2 2 5 7 6 5 7 5 2 2 4 5 5 5 4 1 2 6 6 2 3 3 1 1 4 4 1 2 3 8 5 3 2 3 5 6 6 6 3 3 2 1 0 1 2 2 5 3 2 1 1 2 3 5 5 5 7 8 8 9 9 8 9 9 9
22 23 25 24 22 25 26 24 23 20 16 11 3 3 2 2 3 3 3 3 1 4 6 3 1 5 7 6 5 6 4 2 3 5 5 5 6 4 1 1 4 6 4 4 3 3 4 3 4 4 3 4 8 7 7 7 5 5 5 6 6 4 5 4 3 3 2 1 3 5 3 2 2 1 0 1 4 6 7 8 8 8 8 7 8 10 10 10
24 23 23 21 21 21 19 19 20 14 7 3 2 3 2 4 3 0 1 1 1 3 6 6 1 4 6 3 3 7 4 1 3 5 4 5 6 5 4 2 3 4 5 4 3 1 4 4 7 3 1 6 8 5 5 8 4 2 3 6 4 5 5 3 3 5 5 3 2 3 1 1 1 1 1 0 4 7 8 8 8 8 8 8 9 9 9 9
23 21 17 16 17 14 9 13 16 13 7 2 3 2 3 3 2 0 2 2 1 3 6 8 3 4 4 1 3 6 2 2 4 3 2 4 4 4 6 4 4 5 5 5 2 1 3 3 6 1 1 6 7 5 5 6 4 2 3 4 4 4 8 6 2 2 4 4 1 2 1 0 1 1 1 1 5 8 8 8 8 8 9 10 9 8 8 8
20 17 12 13 13 8 5 12 18 15 6 2 3 3 3 2 2 3 3 3 4 6 6 5 2 5 4 2 4 6 2 3 4 2 1 2 1 3 5 3 3 6 6 5 2 2 4 2 5 1 4 4 3 6 4 2 5 5 3 5 3 3 5 5 3 3 4 3 0 2 1 2 1 1 1 2 6 8 7 8 9 9 10 9 8 8 9 8
17 12 9 11 9 4 7 15 21 13 3 2 2 3 2 2 3 4 4 2 5 9 6 4 2 4 5 4 4 5 4 3 3 3 3 2 1 3 5 3 2 6 8 6 2 1 3 1 6 2 3 2 2 7 5 5 2 4 6 5 4 4 2 2 3 2 3 3 1 0 2 1 2 2 2 4 7 8 7 7 9 9 9 8 8 9 10 10
12 6 5 5 3 5 13 20 18 6 2 3 3 3 2 3 4 6 7 3 4 7 5 4 3 3 4 5 5 4 5 5 4 3 3 2 0 1 3 2 3 6 8 7 4 1 2 3 2 3 1 0 3 4 3 0 5 5 5 3 2 3 4 3 3 3 4 4 2 2 2 2 4 3 2 4 7 8 7 7 9 9 9 8 7 8 9 9
6 3 1 1 2 9 18 18 8 2 2 3 3 2 2 3 3 6 9 5 3 4 4 3 1 3 3 4 6 5 4 5 4 3 1 2 2 1 1 1 2 4 5 5 5 2 2 3 2 4 4 1 1 0 4 6 3 4 3 2 1 2 3 3 2 2 4 5 3 3 2 4 4 3 2 3 6 7 7 8 8 9 9 8 8 8 7 7
3 1 0 1 7 16 18 9 2 2 3 1 1 2 3 3 3 7 11 7 4 5 5 4 2 3 3 4 5 4 3 3 3 2 1 1 3 1 0 1 2 3 3 3 3 2 1 2 3 1 4 2 2 4 4 6 5 5 4 4 4 4 4 4 2 1 3 4 4 5 3 4 3 0 1 3 5 7 8 9 9 9 9 8 8 8 7 7
2 1 1 4 15 19 10 2 1 2 2 1 2 2 2 3 3 5 9 7 5 5 3 1 1 2 2 3 3 3 4 3 2 2 2 2 3 2 1 1 1 3 5 3 3 3 3 4 4 1 1 1 3 3 0 3 6 7 4 2 4 4 5 6 4 3 3 3 2 3 2 2 1 3 4 5 6 8 8 8 9 9 8 8 8 8 8 8
2 0 1 9 19 13 3 1 0 1 2 2 3 2 3 2 3 4 6 5 3 2 1 1 0 2 2 1 3 4 4 4 3 2 3 2 2 2 3 2 1 3 5 2 2 1 2 4 4 1 3 3 3 3 4 4 7 7 4 3 3 2 3 5 5 4 4 3 2 3 1 2 2 4 6 6 7 9 7 6 9 9 6 7 8 8 8 8
2 2 1 10 16 5 3 3 2 2 3 2 3 3 3 2 3 6 6 4 2 2 2 2 1 1 2 2 4 4 4 4 3 2 3 3 1 1 4 4 2 4 2 3 5 3 1 1 4 3 2 4 4 4 5 5 5 4 2 4 2 3 5 4 2 4 4 4 4 4 2 2 3 5 6 7 8 9 7 6 9 8 5 6 7 7 7 7
2 1 2 5 9 3 1 3 3 1 2 2 2 4 3 2 5 8 6 4 3 2 1 2 1 2 3 3 5 5 4 4 2 1 2 2 1 2 5 6 3 2 1 2 4 5 3 2 3 5 4 3 1 1 1 0 2 2 2 5 5 4 5 4 3 4 3 5 4 5 3 3 5 7 7 7 8 8 7 7 9 7 6 6 6 6 7 7
1 1 2 2 4 3 2 2 1 2 2 2 2 3 2 2 4 4 5 3 3 1 2 3 2 3 5 5 7 6 7 6 5 3 3 2 1 1 4 5 5 5 7 9 7 5 5 3 4 5 5 4 4 3 2 2 3 2 3 6 6 4 2 4 5 2 4 5 2 3 5 7 7 7 7 7 7 6 5 7 9 7 6 6 6 6 6 6
1 1 3 3 2 2 3 2 1 2 2 2 1 2 2 3 5 2 2 1 1 2 2 3 4 4 4 5 6 4 5 7 7 5 3 1 1 1 3 3 6 7 6 7 6 4 6 3 4 7 8 3 2 2 3 5 6 4 4 6 7 5 3 5 4 3 6 7 1 4 7 9 8 7 7 6 6 6 6 8 8 6 5 5 6 6 7 8
1 1 1 1 1 2 3 3 3 4 3 2 1 2 2 2 3 1 2 2 3 4 2 3 7 6 3 3 5 3 3 6 6 4 2 2 1 2 4 4 6 7 5 4 4 4 7 3 2 6 8 7 5 5 7 10 9 8 9 9 9 7 5 5 3 2 4 5 4 8 10 7 6 7 6 6 6 6 7 8 7 6 6 6 7 7 8 8
1 1 2 2 1 2 2 2 4 5 3 3 1 1 1 2 2 2 2 2 4 5 4 3 7 7 4 4 6 3 1 4 3 1 1 2 2 2 3 3 3 5 5 5 3 3 5 3 1 6 8 9 8 6 7 10 9 9 11 10 9 9 8 7 3 2 5 5 5 12 13 7 5 6 7 7 7 6 7 8 7 7 7 7 8 8 7 8
0 1 2 2 2 0 1 1 3 4 1 2 2 2 2 2 1 1 2 2 1 3 4 5 3 5 7 7 7 4 1 5 6 3 4 3 2 2 2 2 1 4 5 4 2 3 4 3 2 3 6 6 7 7 8 9 11 11 11 10 10 8 8 7 4 4 6 7 9 13 11 6 4 5 7 7 6 6 7 7 7 7 7 8 8 8 7 8
4 5 3 1 1 0 1 1 3 3 0 1 2 3 2 2 1 2 3 3 2 2 3 7 6 5 8 9 10 6 1 3 7 5 5 5 4 2 2 2 3 2 4 3 2 3 4 5 2 3 5 2 2 5 6 7 11 11 9 10 10 7 5 5 4 4 2 7 13 11 6 4 4 6 7 7 7 8 8 7 7 6 7 8 8 7 7 7
6 6 4 2 1 1 1 2 2 2 2 3 4 3 2 3 2 3 4 4 4 4 3 5 7 6 6 8 9 3 2 3 7 6 5 6 7 6 4 4 5 4 3 2 3 3 3 6 4 2 4 2 3 1 3 4 5 5 4 5 4 2 4 4 5 6 4 4 8 5 4 6 6 6 7 7 7 8 7 7 6 6 7 8 7 7 7 7
Wind_Direction
326 324 318 318 318 317 316 316 316 316 318 317 318 320 319 321 322 324 324 323 323 322 322 321 320 319 318 318 322 321 318 314 307 308 267 254 258 262 262 263 283 208 181 160 158 149 131 139 145 144 139 133 118 165 177 162 114 76 103 127 194 198 205 186 193 198 206 284 287 321 360 3 285 319 184 24 34 62 85 41 47 32 28 74 107 128 137 140
321 321 318 318 316 316 316 316 315 314 315 315 317 317 318 320 320 322 322 322 323 321 321 321 320 319 318 320 322 320 319 312 305 287 257 259 266 266 262 255 252 203 185 170 165 153 131 153 153 128 117 125 256 140 162 205 150 135 121 145 215 207 216 196 198 219 230 273 293 311 329 322 250 196 134 77 45 44 90 29 41 50 52 72 101 122 128 127
317 316 316 319 316 313 312 313 315 316 313 314 316 316 317 318 318 320 320 321 320 321 321 319 319 318 319 320 320 319 315 312 306 271 266 270 269 261 257 246 229 200 195 181 167 159 146 164 155 128 91 103 244 121 146 226 187 178 128 164 236 222 242 234 213 232 238 263 299 298 322 16 277 253 61 133 106 47 177 197 83 85 111 101 103 111 115 118
318 317 317 318 317 313 310 308 310 314 313 313 314 315 316 317 319 319 319 319 318 320 319 319 319 317 318 320 319 314 311 311 275 259 272 277 263 254 245 234 214 195 198 182 162 154 138 150 149 123 99 120 306 80 157 226 191 191 150 186 237 205 244 252 211 236 251 244 265 286 327 352 276 299 80 124 90 339 254 218 168 152 146 127 114 109 117 124
321 320 320 319 315 312 311 310 307 310 313 312 312 313 314 316 318 317 318 318 318 319 318 319 317 317 320 319 317 312 313 317 273 238 220 163 310 282 241 221 204 195 195 182 163 145 130 137 136 97 97 151 260 81 213 229 152 189 208 198 223 183 240 262 218 234 240 204 220 290 319 315 271 2 98 121 123 246 252 219 153 147 147 135 124 124 133 141
322 320 321 318 316 314 312 312 308 308 313 313 312 312 313 314 315 316 317 316 318 318 317 319 317 319 320 319 320 306 258 262 302 176 168 288 339 328 249 206 197 192 189 180 161 144 132 125 137 139 122 146 169 177 234 240 143 210 277 228 232 225 242 272 274 263 292 322 275 252 301 312 34 5 275 136 170 231 303 71 131 131 134 131 130 138 148 158
320 320 321 317 312 311 310 311 309 307 310 312 312 311 312 313 314 315 314 315 317 316 317 319 318 320 322 326 319 282 135 265 269 242 254 293 311 321 237 190 191 186 178 165 149 151 140 128 159 152 130 148 179 204 226 268 152 202 254 274 250 231 239 263 284 286 309 305 277 288 327 304 290 346 28 229 253 317 18 82 114 120 126 130 137 147 158 170
322 321 322 319 311 306 305 306 309 308 309 310 310 311 312 312 312 312 313 314 315 315 317 317 318 322 327 332 303 287 322 250 257 257 280 289 300 315 184 179 185 179 168 161 157 157 142 142 173 145 140 192 179 194 197 168 240 204 226 256 261 236 245 267 281 286 296 283 279 329 313 285 272 295 140 228 279 355 72 98 108 119 128 134 146 154 166 178
324 322 321 319 314 309 307 306 308 308 310 310 309 310 310 311 311 311 312 312 313 315 315 316 318 320 323 327 49 298 258 249 263 273 278 276 284 261 172 172 178 171 158 162 159 153 155 162 179 162 164 190 169 180 170 167 237 216 208 232 257 266 270 282 281 277 282 270 285 333 287 282 299 271 236 245 227 107 91 105 116 125 132 141 153 164 174 178
323 320 317 315 313 310 309 308 306 306 308 309 308 309 309 310 309 309 310 309 311 310 312 315 314 321 321 315 137 236 262 265 280 281 266 258 243 187 169 169 172 167 155 156 157 160 174 169 166 155 144 154 172 184 155 167 216 200 190 230 244 265 283 281 277 277 283 259 196 203 258 288 344 321 275 290 189 123 99 107 122 128 139 151 160 174 181 174
324 319 315 314 314 311 309 308 307 306 307 308 308 308 307 308 307 308 309 307 308 305 308 309 311 320 307 308 147 220 269 307 331 19 319 234 202 178 172 174 173 171 160 152 176 179 163 156 147 113 144 159 163 180 193 183 183 176 164 254 264 281 298 257 263 271 230 255 203 183 240 322 14 36 222 264 216 115 110 116 129 136 147 158 167 179 183 157
325 321 318 316 315 313 311 310 310 308 307 308 308 307 307 307 306 307 305 305 305 301 303 304 307 301 277 290 228 233 247 164 102 64 46 229 196 181 176 179 180 180 171 165 197 189 160 165 154 117 197 158 127 178 219 191 158 170 155 248 290 339 325 251 253 252 174 217 185 152 268 314 288 241 250 266 184 114 116 127 137 145 155 162 174 184 173 128
321 318 317 317 316 314 312 309 309 309 309 309 308 307 306 305 304 304 303 302 301 298 299 298 290 271 252 247 242 243 247 237 245 295 290 274 201 187 184 188 189 192 189 184 193 190 182 180 165 158 178 132 156 211 133 105 141 212 141 151 302 0 330 267 275 220 164 180 161 137 249 273 263 267 266 258 159 122 118 138 146 152 162 167 181 182 157 124
319 314 311 314 316 317 318 312 309 309 309 309 308 307 305 304 302 299 298 295 294 294 293 287 267 245 208 251 263 264 261 256 263 267 261 242 206 192 192 196 197 200 203 196 175 192 199 195 146 143 173 142 215 273 34 13 22 209 154 82 358 37 284 292 312 145 150 176 148 124 218 259 271 267 264 252 169 141 135 155 158 163 169 174 187 173 149 133
317 314 310 311 310 311 316 316 312 311 312 311 308 307 305 302 297 294 293 289 288 282 270 255 224 211 238 274 275 278 261 255 252 247 245 219 194 196 207 202 202 205 207 201 181 189 194 193 76 104 272 239 107 7 343 1 11 45 148 298 350 160 262 305 303 161 155 249 89 106 199 274 279 266 278 267 184 149 147 170 168 171 175 173 181 163 146 128
314 313 313 314 309 308 314 318 316 314 314 312 309 308 303 300 297 293 286 279 276 236 210 222 205 198 257 280 281 284 234 227 243 243 236 216 198 196 199 189 191 198 199 201 201 192 177 173 116 149 230 155 121 107 65 40 338 1 123 213 271 160 267 304 307 263 176 93 30 92 173 269 296 289 305 247 176 147 154 182 176 170 175 167 167 158 146 139
312 312 315 317 314 314 317 317 316 314 314 312 311 308 305 307 300 287 273 247 210 184 183 182 179 190 253 275 289 288 237 217 239 240 215 212 204 183 162 156 157 168 170 182 195 201 169 162 152 160 85 83 135 117 102 197 236 328 47 150 215 181 230 273 296 315 59 89 22 19 185 225 275 303 331 341 154 133 158 185 174 158 151 154 159 156 145 155
311 313 315 317 314 312 314 317 316 315 316 314 313 309 310 327 322 262 173 150 129 139 185 217 165 175 259 272 263 251 288 258 246 229 196 196 194 179 153 141 134 131 132 119 155 179 167 140 89 113 147 146 143 118 148 206 184 174 143 124 112 351 271 263 273 274 40 41 259 281 238 246 310 331 349 350 2 36 23 35 95 108 134 171 172 147 136 165
315 316 317 318 316 313 314 317 316 315 318 317 320 319 315 50 72 105 124 141 131 121 194 206 180 169 279 261 238 255 315 313 250 210 182 177 180 178 150 130 122 119 129 114 139 177 140 74 87 140 189 180 173 156 168 194 164 153 151 133 126 41 272 255 260 251 82 69 209 215 222 43 14 353 352 343 10 50 22 27 71 62 46 266 49 108 132 183
318 318 320 321 320 319 317 317 315 317 320 321 329 338 20 91 59 97 108 180 212 230 232 185 193 235 310 280 19 358 329 322 257 196 178 172 164 155 136 119 93 85 134 143 152 176 131 135 179 179 190 194 191 177 160 160 139 128 113 100 118 135 280 264 260 268 140 131 246 210 107 57 36 0 350 344 25 38 13 17 52 56 66 41 58 133 164 189
319 320 320 321 319 316 314 315 314 315 317 318 330 350 46 302 319 75 336 238 238 242 256 232 200 235 267 264 352 16 353 324 326 254 179 171 152 142 171 156 116 99 159 148 129 112 112 154 210 204 193 189 180 165 136 122 104 100 112 93 81 192 262 260 254 300 62 145 283 78 82 52 20 11 6 15 34 27 7 18 25 25 99 103 116 152 180 174
316 317 316 318 318 313 314 314 312 310 307 307 316 307 248 246 111 23 338 271 257 233 240 247 222 242 257 264 284 340 7 280 308 301 172 163 149 155 174 128 141 159 154 116 102 114 119 183 225 211 178 125 95 116 113 110 102 88 110 104 53 240 277 286 280 329 19 130 339 76 83 43 340 360 30 34 35 23 17 34 29 20 42 100 140 149 168 169
315 316 316 318 316 313 314 311 308 306 299 292 255 202 229 199 22 337 329 277 281 231 221 232 228 240 250 263 264 233 199 221 268 285 174 156 149 166 147 126 155 149 136 134 128 138 148 229 224 179 141 111 80 86 102 94 88 87 112 125 227 263 319 294 289 334 12 92 123 108 91 46 348 358 39 36 26 25 26 37 41 31 12 332 199 171 182 192
318 320 320 317 315 315 314 310 307 307 311 291 247 232 257 316 330 329 323 202 279 249 209 208 205 222 233 243 218 174 199 208 205 257 184 158 139 151 147 142 147 133 152 150 130 138 181 225 174 129 139 136 111 108 120 114 98 89 142 137 176 235 197 222 278 331 1 53 103 111 81 25 353 8 22 10 15 30 23 28 36 28 17 0 350 338 278 225
319 318 319 318 318 318 314 312 309 319 327 294 263 268 330 330 330 326 275 294 283 272 218 193 185 221 221 205 167 159 179 217 212 225 189 165 148 141 154 150 133 148 166 139 125 145 203 209 129 123 154 144 122 143 164 149 142 243 221 178 188 193 202 242 303 8 32 39 340 92 82 5 324 5 15 349 17 34 25 29 32 25 23 22 15 2 352 4
320 318 321 322 319 321 321 317 316 325 318 283 250 303 340 333 335 269 190 3 282 262 169 162 174 198 194 169 157 144 110 239 223 201 184 171 161 146 146 150 102 154 158 135 133 149 183 170 132 129 152 148 133 164 204 157 127 204 232 195 187 165 180 245 246 74 87 179 246 81 109 153 308 354 359 340 19 37 33 33 29 26 27 25 23 19 19 24
320 318 320 318 318 328 329 313 317 319 302 227 254 283 312 332 337 187 167 9 273 226 143 163 182 174 176 166 155 135 136 219 183 185 186 170 168 133 131 163 121 145 158 121 142 216 155 153 136 118 128 141 145 179 214 155 124 218 232 169 160 152 173 206 148 120 222 220 310 26 96 126 87 324 325 326 22 32 30 31 24 23 28 28 30 29 34 36
318 317 316 313 313 316 307 299 306 295 245 262 301 300 320 334 333 169 39 357 252 125 135 193 182 165 163 155 156 160 218 172 134 193 190 164 168 90 118 175 147 145 157 124 160 226 152 160 169 148 128 153 184 196 190 153 138 237 212 144 154 156 165 159 111 100 352 22 287 339 46 102 164 284 315 345 34 30 23 24 19 19 25 30 36 36 39 42
316 313 308 308 307 301 300 292 274 258 271 298 300 308 323 331 157 149 12 210 238 232 132 131 158 165 132 143 174 201 253 146 140 186 162 159 177 95 131 179 142 140 136 124 168 203 157 183 177 151 148 194 205 191 170 160 182 222 147 104 99 89 81 91 102 109 41 53 242 299 18 106 213 309 348 13 37 22 10 19 15 17 29 35 39 41 41 42
314 308 304 307 303 302 308 284 263 269 291 297 303 315 324 7 142 85 248 240 257 255 111 138 184 161 138 144 187 216 242 5 121 120 113 147 149 76 112 120 109 126 82 71 160 200 337 199 157 146 172 192 186 170 169 172 170 149 119 76 59 50 36 44 59 88 71 9 261 283 345 103 127 325 21 39 41 18 4 23 21 19 31 37 40 45 45 44
310 304 303 302 297 302 308 286 277 280 285 304 317 324 331 140 104 135 201 246 272 292 2 173 213 144 151 157 171 201 218 4 116 128 127 137 110 91 106 97 73 92 84 68 164 294 350 44 166 215 191 142 118 110 154 179 138 111 111 96 85 26 14 25 356 48 93 263 270 303 354 69 104 236 36 46 59 55 40 42 33 28 34 37 40 41 43 44
309 306 302 294 288 284 266 254 274 254 285 314 327 338 101 114 299 215 249 323 325 285 304 187 211 159 164 168 162 174 168 79 123 132 138 146 137 140 141 154 144 105 137 183 156 332 325 236 261 295 230 137 116 93 48 33 86 98 109 119 120 62 32 49 313 46 142 234 279 329 360 65 86 114 43 45 66 65 67 65 47 39 41 41 40 38 39 40
307 306 301 290 283 272 256 253 262 268 290 312 327 32 97 95 237 221 261 311 329 301 317 293 200 153 161 170 163 166 147 132 166 134 135 134 137 160 123 146 157 136 161 190 137 85 255 276 293 317 259 171 136 134 130 154 161 138 137 142 142 128 120 160 259 287 202 227 306 336 12 84 93 89 54 58 85 81 76 69 55 49 48 43 42 41 41 40
305 304 300 293 283 271 262 258 260 266 287 307 341 81 96 201 240 216 220 257 297 305 307 299 133 130 160 178 165 159 134 98 155 133 131 131 137 170 138 17 168 137 110 142 150 148 151 252 239 178 215 183 159 170 166 153 150 158 153 136 147 155 142 170 195 168 179 178 335 344 35 132 193 140 350 50 103 90 75 69 61 58 51 45 45 40 36 36
309 306 302 295 283 273 263 254 252 248 255 286 80 101 177 219 258 310 224 297 322 274 292 305 351 135 170 182 152 165 145 74 152 123 125 152 153 173 168 185 196 138 108 145 190 142 134 223 246 226 175 164 171 188 142 122 117 177 136 105 155 187 137 126 175 161 151 119 5 341 77 188 222 176 252 215 108 91 81 77 70 62 52 48 46 39 33 30
314 311 304 285 276 276 256 231 224 208 195 162 106 148 221 230 219 217 295 319 279 260 304 314 304 148 163 152 162 187 150 106 154 121 108 158 152 168 175 193 188 151 133 148 185 127 119 250 277 312 194 185 174 171 144 139 143 127 124 151 204 178 117 117 155 71 92 111 43 308 183 96 355 219 267 107 115 103 91 82 73 61 53 49 43 38 32 27
314 310 296 275 276 279 227 197 184 175 175 135 136 200 235 226 208 220 260 323 296 280 294 297 241 142 158 167 168 187 163 123 155 135 133 173 173 165 174 211 177 163 169 151 174 196 143 243 292 154 192 236 165 125 89 86 139 125 154 185 178 93 89 109 123 34 49 107 287 317 142 135 152 218 264 180 142 117 97 84 74 57 51 49 40 37 30 23
308 301 282 279 281 254 196 174 163 158 148 119 174 239 236 221 246 262 280 316 287 278 266 231 198 140 160 170 169 181 170 160 161 131 136 181 248 153 160 194 163 175 188 147 114 236 127 151 295 277 175 286 44 98 71 7 36 126 153 153 116 122 135 87 124 136 98 114 208 356 106 168 202 210 227 196 158 126 105 90 78 64 55 47 37 35 27 23
298 291 285 295 286 194 169 160 155 142 77 142 199 238 238 236 257 277 277 254 253 268 252 218 200 147 161 165 160 166 164 168 166 132 128 146 172 160 170 187 165 187 195 155 133 202 114 115 271 282 224 35 30 77 133 53 19 55 99 91 59 130 154 147 141 145 131 139 180 150 135 236 225 214 218 181 151 134 123 103 87 76 66 54 44 37 26 23
285 285 303 13 172 165 155 152 150 103 127 172 201 215 271 273 265 277 270 248 236 254 246 243 194 131 155 162 154 151 143 145 144 127 116 112 106 144 292 31 134 178 191 170 157 143 67 100 173 290 330 68 109 192 182 171 109 76 94 103 62 73 115 135 89 76 120 138 154 142 180 252 242 221 224 154 136 132 121 103 89 79 72 62 52 44 29 23
288 286 217 188 165 154 147 149 182 172 163 205 211 209 284 299 296 284 277 266 250 242 240 251 217 133 133 145 147 140 111 100 104 110 102 92 108 133 333 61 144 155 135 156 175 157 123 125 151 306 6 58 235 268 221 190 159 134 140 162 154 122 114 119 96 14 100 122 158 155 181 254 268 173 99 94 110 113 108 102 91 78 71 63 53 46 36 28
269 193 191 180 163 153 142 132 216 158 143 190 219 228 272 291 290 280 282 280 253 237 238 248 206 114 106 133 136 120 101 78 58 99 128 129 143 179 246 352 173 146 120 141 201 182 148 104 94 61 10 184 249 308 53 147 114 98 99 139 135 120 118 126 167 200 96 92 145 123 127 245 352 73 80 75 81 88 93 99 93 80 68 63 55 45 39 32
232 133 81 167 164 154 93 44 206 289 221 232 276 254 226 254 279 270 279 290 269 257 317 359 354 87 84 102 113 113 107 79 54 98 133 119 143 213 296 335 143 123 98 127 197 162 108 86 84 34 311 310 309 346 14 52 74 75 47 30 82 114 128 138 167 161 124 143 141 83 89 195 116 91 88 85 83 78 72 79 85 81 69 64 59 48 40 32
279 311 63 165 171 168 17 155 182 264 237 291 322 276 246 234 239 251 267 292 300 303 340 353 355 58 57 65 96 110 122 100 57 48 111 110 135 280 352 10 118 138 126 177 173 152 144 105 92 90 25 359 359 358 359 11 40 70 41 351 1 108 110 121 123 83 110 184 159 121 176 198 130 113 98 91 88 80 69 68 75 72 61 59 56 48 42 33
306 318 46 162 189 243 339 168 159 149 220 292 293 269 274 245 235 237 243 279 293 281 335 351 359 42 35 54 79 67 60 92 100 104 108 82 9 348 2 13 54 119 133 130 118 109 113 107 98 119 139 149 154 236 233 78 33 50 33 359 3 64 99 125 120 82 127 187 153 133 166 151 127 121 111 106 97 89 82 74 71 63 53 55 53 48 41 33
293 137 84 131 202 254 278 221 140 131 190 228 242 267 245 236 274 244 208 247 298 319 10 357 5 42 36 53 77 53 27 53 89 113 110 80 16 326 345 16 44 67 83 75 64 83 100 69 64 101 123 162 185 219 239 133 91 55 358 6 14 10 29 100 114 141 162 151 151 198 166 143 142 138 125 115 100 93 84 73 70 60 48 52 53 51 47 37
286 171 149 151 191 230 263 278 162 156 218 200 209 295 249 249 297 299 181 233 336 13 21 16 21 40 39 58 85 62 19 45 63 77 88 86 154 283 335 33 38 25 65 70 33 67 101 62 35 69 70 68 109 75 55 79 89 86 54 29 25 4 6 88 115 195 155 128 195 222 157 139 143 136 121 111 100 92 79 70 69 58 45 52 52 47 45 39
249 271 224 208 201 192 223 249 191 186 251 254 279 318 308 298 305 295 284 302 358 20 56 30 7 16 37 85 105 92 36 55 45 39 69 37 57 21 355 29 36 15 41 56 17 80 104 71 35 83 68 45 34 47 75 87 85 73 64 47 31 24 41 88 117 219 144 138 188 165 137 125 122 117 106 99 97 90 80 74 71 60 47 50 50 43 40 34
256 288 296 305 302 179 197 226 170 172 230 246 255 294 261 278 284 265 304 354 10 7 61 64 351 352 21 66 104 98 75 104 77 347 149 50 45 65 37 35 27 20 46 57 30 81 99 76 97 101 77 45 26 28 67 89 89 65 52 46 40 41 52 68 82 78 80 92 130 127 116 94 83 100 95 89 89 87 84 76 68 62 51 49 49 41 37 33
326 343 310 319 333 212 167 57 126 141 222 234 230 259 232 226 252 279 5 55 66 347 44 86 45 25 51 64 81 78 209 155 133 158 168 121 87 105 110 158 243 9 31 51 21 28 85 136 186 100 76 41 27 50 68 84 90 71 48 37 34 36 38 39 46 56 60 76 100 107 105 92 84 96 89 83 80 76 76 71 66 61 52 50 45 37 35 34
308 301 284 268 317 322 158 98 115 126 127 219 214 246 243 232 211 97 45 26 112 103 99 123 113 61 54 60 65 66 204 139 106 124 157 135 123 139 133 144 149 68 31 43 27 14 73 131 165 74 83 55 23 72 66 70 82 71 43 26 23 28 41 37 29 18 45 124 121 113 114 125 124 109 91 79 75 72 68 65 63 58 52 50 42 33 33 31
328 310 297 264 271 304 167 118 97 127 193 208 207 232 250 257 275 94 77 12 17 52 85 140 122 79 58 58 53 48 205 125 93 104 125 104 87 88 87 82 92 104 107 92 54 17 85 129 143 101 97 136 225 272 4 26 71 61 15 356 360 38 83 62 31 12 10 122 130 126 133 130 126 120 103 88 82 77 67 59 55 52 55 54 44 36 32 27